Weather Roundup
Issued by NWS Chicago, IL

Home | Current Version | Previous Version | Graphics & Text | Print | Product List | Glossary On
Versions: 1 2 3 4 5 6 7 8 9 10 11 12 13 14 15 16 17 18 19 20 21 22 23 24 25 26 27 28 29 30 31 32 33 34 35 36 37 38 39 40 41 42 43 44 45 46 47 48 49 50
000
NZUS59 KLOT 130410
HRRLOT

CHICAGO AREA WEATHER ROUNDUP
NATIONAL WEATHER SERVICE CHICAGO/ROMEOVILLE IL
1100 PM CDT SAT JUL 12 2014

NOTE: "FAIR" INDICATES FEW OR NO CLOUDS BELOW 12,000 FEET WITH NO
SIGNIFICANT WEATHER AND/OR OBSTRUCTIONS TO VISIBILITY.

* THESE STATIONS ARE NOT UNDER NWS QUALITY CONTROL. THEY ALSO MAY NOT
  REPORT WEATHER SUCH AS PRECIPITATION OR FOG.

ILZ005-006-012>014-019>023-130500-
NORTHEAST ILLINOIS

CITY           SKY/WX    TMP DP  RH WIND       PRES   REMARKS
OHARE          RAIN      79  73  82 SW12      29.85R HX  82
MIDWAY         LGT RAIN  80  77  90 SW12      29.86R HX  87
AURORA         TSTM      72  68  87 W14G28    29.93R FOG
LANSING*       LGT RAIN  78  74  87 SW14      29.88R HX  80
JOLIET*        CLOUDY    78  73  86 SW6       29.89S HX  80
WAUKEGAN       TSTM      72  69  90 NW8G16    29.84R FOG
DUPAGE AIRPORT LGT RAIN  78  75  90 W14       29.90R HX  81
WHEELING       TSTM      79  76  90 SW8       29.86S HX  83
KANKAKEE*      CLOUDY    78  74  89 S10       29.91S HX  80
MORRIS*        CLOUDY    79  76  92 SW10      29.90R HX  83
LEWIS AIRPORT* LGT RAIN  78  75  92 SW12G18   29.88S
NORTHERLY IS     N/A     79  74  84 S7          N/A  HX  82
$$

WIZ051-052-058>065-066-070>072-130500-
SOUTHEAST WISCONSIN

CITY           SKY/WX    TMP DP  RH WIND       PRES   REMARKS
MILWAUKEE      TSTM      70  68  93 NW8       29.85S
KENOSHA*       HVY RAIN  71  70  96 W10       29.87R FOG
RACINE*        HVY RAIN  71  69  93 W7        29.87R FOG
BURLINGTON     HVY RAIN  68  66  96 NW10      29.88R
WAUKESHA       RAIN      66  64  94 W6        29.87F
WEST BEND      CLOUDY    64  61  88 N3        29.88F
$$

INZ001>003-010>013-019-020-130500-
NORTHWEST INDIANA

CITY           SKY/WX    TMP DP  RH WIND       PRES   REMARKS
GARY*          LGT RAIN  79  76  91 S5        29.88R HX  83
MICHIGAN CITY* NOT AVBL
RENSSELAER*    NOT AVBL
VALPARAISO     CLOUDY    75  73  93 SW12      29.90S
$$

LMZ740>746-130500-
SOUTHERN LAKE MICHIGAN

STATION/POSITION TIME  SKY/WX   TEMP WIND        PRES    VSBY
                                AIR  DIR/SP/G
                 (UTC)          (F)  (DEG/KT/KT) (MB)    (MI)
HARRISON CRIB    0400            78  200/ 18/ 23   N/A
BURNHAM HARBOR   0400            79  220/  7/ 15   N/A
CALUMET HARBOR   0400            77  200/  9/ 12 1012.1S
BURNS HARBOR     0400            76  190/ 11/ 16 1012.2R
MICHIGAN CITY    0400            76  160/ 14/ 21   N/A
$$

ABBREVIATIONS USED IN REMARKS
   TC - TEMPERATURE IN CELSIUS
  WCI - WIND CHILL INDEX
   HX - HEAT INDEX
  VSB - VISIBILITY
$$


USA.gov is the U.S. government's official web portal to all federal, state and local government web resources and services.